Вернуться в каталог

KUIPER-00611

АктивенСвязьLEO
NORAD 69771·PAYLOAD·🇺🇸 United States

Запущен Jul 2, 2026 с Cape Canaveral Space Force Station

Loading…

Ближайшие Пролёты (ближайшие 24 часа)

TLE

СвежийSource: CelesTrak SupGP

Эпоха: Sep 14, 2026, 20:35 UTC

1 69771C 26151J   26257.85810185  .00002039  00000+0  26688-3 0  2576
2 69771  51.8969 254.1282 0000657  60.1348 149.6839 14.79923231    16

Отслеживайте KUIPER-00611 в реальном времени с AllMySat

Download on the App Store